Terminal Aerodrome Forecast
Issued by NWS

Home | Current Version | Previous Version | Text Only | Print | Product List | Glossary On
Versions: 1 2 3 4 5 6 7 8 9 10 11 12 13 14 15 16 17 18
000
FTUS42 KGSP 311734
TAFGMU
TAF
KGMU 311734Z 3118/0118 03006KT P6SM SCT070
     FM010300 04004KT P6SM FEW250
     FM011600 35004KT P6SM FEW070=

USA.gov is the U.S. government's official web portal to all federal, state and local government web resources and services.